Dauntless Aviation
Airports South America Uruguay

Hospital Policial

Montevideo, URUGUAY

Airport Info
Suggest Updated Information for this Airport

Location

Latitude / Longitude: 34°52'4"S / 56°9'6"W
  34°52.068'S / 56°9.114'W
  -34.8678 / -56.1519
Satellite photo at:
Airport distance calculator
From:
Weather Reports

METAR

SUMU
8.1nm NE
SUMU 010600Z 13006KT 050 R19/200 R24/0300 FG OVC002 14/14 Q1020 TEMPO-RA

TAF

SUAA
7.8nm NW
TAF SUAA 010515Z 0106/0206 13005KT 5000 RA BKN008 OVC070 TX18/0118Z TN14/0110Z TEMPO 0106/0112 0800 FG OVC003 BECMG 0114/0116 08007KT 9999 SCT010 BKN060
SUMU
8.1nm NE
TAF SUMU 010515Z 0106/0206 13005KT 5000 RA BKN008 OVC070 TX18/0118Z TN14/0110Z TEMPO 0106/0112 0800 FG OVC003 BECMG 0114/0116 08007KT 9999 SCT010 BKN060
Safelog

 

Dauntless Aviation

© 2007-2016 Dauntless Aviation, all rights reserved
Information provided via PilotNav comes from a variety of official and unofficial data sources. As errors are possible, do not use PilotNav for primary flight planning purposes. Verify any information that you receive via PilotNav with current and canonical charts and other official documents. The material in this database is subject to database copyrights held by Dauntless Aviation and may not be copied without the express permission of Dauntless Aviation - licenses for use of part of all of this data are available for purchase; enquire via the Dauntless Aviation helpdesk. A number of mechanisms and markers exist in the database to protect against and identify infringement / copyright. Automated queries against this website are stictly prohibited, and all activity is logged and analyzed.